Location: Newark
(33.4133°N, 82.3847°W)
Time: 21:24:34
(UTC+00:00)

ISS - Visible Passes

Search period start: 21 January 2020 00:00
Search period end: 31 January 2020 00:00
Orbit: 415 x 421 km, 51.6° (Epoch: 22 January)

Date Brightness Start Highest point End Pass type
(mag) Time Alt. Az. Time Alt. Az. Time Alt. Az.
21 Jan -0.5 01:11:21 10° WNW 01:11:35 11° NW 01:11:35 11° NW visible
22 Jan -1.6 00:22:17 10° W 00:24:48 19° NNW 00:25:52 17° N visible
22 Jan -2.2 23:33:39 10° WSW 23:36:41 31° NW 23:39:44 10° NNE visible
24 Jan -1.1 23:36:04 10° WNW 23:37:46 13° NNW 23:39:27 10° N visible
